Tracking 19817 objects as of 18-Aug-2019
HD Live streaming from Space Station
objects crossing your sky now

INTERCOSMOS 25

Track INTERCOSMOS 25 now!
10-day predictions
INTERCOSMOS 25 is classified as:


NORAD ID: 21819
Int'l Code: 1991-086A
Perigee: 447.6 km
Apogee: 2,883.5 km
Inclination: 82.6 °
Period: 119.5 minutes
Semi major axis: 8036 km
RCS: 7.3989 m2 (large)
Launch date: December 18, 1991
Source: Commonwealth of Independent States (former USSR) (CIS)
Launch site: PLESETSK MISSILE AND SPACE COMPLEX (PKMTR)
aabbcc
Your satellite tracking list
Your tracking list is empty




NASA's NSSDC Master Catalog

Two Line Element Set (TLE):
1 21819U 91086A   19229.23055464  .00000391  00000-0  77500-4 0  9993
2 21819  82.5955 308.9454 1515551 202.3226 150.4508 12.05035936207545
Source of the keplerian elements: AFSPC